Home   Weather   Serekunda   Past weeks

Flag for Gambia Past Weather in Serekunda, Gambia — Yesterday and Last 2 Weeks

Now
66 °F

Clear.


Feels Like: 66 °F
Forecast: 65 / 81 °F
Wind: 5 mph from West

Location: Banjul / Yundum

Current Time: Jan 18, 2017 at 1:48:46 am

Latest Report: Jan 18, 2017 at 1:00 am


Visibility: 6 mi

Pressure: 29.83 "Hg

Humidity: 88%

Dew Point: 63 °F

Location of SerekundaLocation

Past Weather in Serekunda — Graph

°F

Serekunda Temperature Yesterday

Maximum temperature yesterday: 93 °F (at 2:00 pm)
Minimum temperature yesterday: 64 °F (at 7:00 am)
Average temperature yesterday: 74 °F

High & Low Weather Summary for the Past Weeks

 TemperatureHumidityPressure
High97 °F (Jan 8, 2:00 pm)94% (Jan 7, 3:00 am)29.98 "Hg (Jan 7, 3:00 am)
Low57 °F (Jan 6, 8:00 am)16% (Jan 5, 5:00 pm)29.74 "Hg (Jan 14, 3:00 pm)
Average75 °F46%29.85 "Hg
* Reported Jan 3 12:00 am — Jan 18 12:00 am, Serekunda, Weather by CustomWeather, © 2017

Note: Actual official high and low records may vary slightly from our data, if they occured in-between our weather recording intervals... More about our weather records

Advertising

Serekunda Weather History for the Previous 24 Hours

Scroll right to see more
 ConditionsComfort  
Time TempWeatherWind HumidityBarometerVisibility
12:00 am
Wed, Jan 18
68 °FClear.5 mph88%29.86 "Hg10 mi
11:00 pm
Tue, Jan 17
68 °FClear.6 mph88%29.86 "Hg10 mi
10:00 pm70 °FClear.5 mph83%29.83 "Hg10 mi
9:00 pm70 °FClear.7 mph83%29.83 "Hg10 mi
8:00 pm72 °FClear.8 mph83%29.80 "Hg10 mi
7:00 pm73 °FClear.9 mph74%29.77 "Hg10 mi
6:00 pm77 °FSunny.9 mph65%29.77 "Hg10 mi
5:00 pm79 °FSunny.13 mph58%29.74 "Hg10 mi
4:00 pm86 °FSunny.13 mph43%29.74 "Hg10 mi
3:00 pm91 °FSunny.12 mph34%29.74 "Hg10 mi
2:00 pm93 °FSunny.6 mph21%29.77 "Hg10 mi
1:00 pm88 °FSunny.6 mph29%29.80 "Hg10 mi
12:00 pm86 °FSunny.2 mph29%29.83 "Hg10 mi
10:00 am72 °FSunny.5 mph53%29.83 "Hg10 mi
9:00 am70 °FSunny.3 mph60%29.83 "Hg10 mi
8:00 am64 °FSunny.6 mph78%29.83 "Hg10 mi
7:00 am64 °FClear.5 mph83%29.83 "Hg10 mi
6:00 am66 °FClear.7 mph78%29.83 "Hg10 mi
5:00 am66 °FClear.6 mph78%29.83 "Hg10 mi
3:00 am66 °FClear.7 mph78%29.83 "Hg10 mi
2:00 am66 °FClear.7 mph83%29.83 "Hg10 mi
1:00 am68 °FClear.7 mph83%29.86 "Hg10 mi
Weather by CustomWeather, © 2017

See weather overviewHow to use our weather pages